GW4826 Weather Reports


time (UTC)temp
C
wind
direction
speed
KPH
gust
KPH
rain 1hr
cm
rain 24hr
cm
rain mn
cm
humidity
%
barometer
mb
20260504173756 16 298 17.7 19.3 0.00 0.00 0.00 36 1007.2
20260504173253 16 358 24.1 32.2 0.00 0.00 0.00 38 1007.1
20260504172750 16 330 12.9 35.4 0.00 0.00 0.00 39 1007.0
20260504172247 16 329 12.9 30.6 0.00 0.00 0.00 37 1006.9
20260504171743 16 318 17.7 22.5 0.00 0.00 0.00 38 1007.0
20260504171240 16 323 16.1 20.9 0.00 0.00 0.00 38 1006.8
20260504170737 16 331 9.7 17.7 0.00 0.00 0.00 40 1006.7
20260504170234 16 314 14.5 29.0 0.00 0.00 0.00 41 1006.7
20260504160153 15 323 12.9 24.1 0.00 0.00 0.00 42 1006.2
20260504151120 15 356 14.5 38.6 0.00 0.00 0.00 47 1005.5
20260504150618 15 329 9.7 20.9 0.00 0.00 0.00 49 1005.4
20260504150115 15 340 17.7 32.2 0.00 0.00 0.00 49 1005.1
20260504141043 13 359 17.7 25.7 0.00 0.00 0.00 54 1004.9
20260504140540 13 355 16.1 25.7 0.00 0.00 0.00 54 1004.6
20260504130504 11 2 14.5 22.5 0.00 0.00 0.00 64 1003.7
20260504110351 11 294 4.8 8.0 0.00 0.00 0.00 68 1001.2
20260504100309 11 238 1.6 6.4 0.00 0.00 0.00 66 1001.1
20260504081702 11 246 0.0 3.2 0.00 0.00 0.00 63 1002.3
20260504081158 11 275 1.6 3.2 0.00 0.00 0.00 63 1002.2
20260504080655 11 205 1.6 1.6 0.00 0.00 0.00 63 1002.3
20260504080152 11 173 0.0 3.2 0.00 0.00 0.00 64 1002.4
20260504070119 8 212 1.6 3.2 0.00 0.00 0.00 68 1003.4
20260504050508 8 150 0.0 1.6 0.00 0.00 0.00 69 1004.5
20260504050005 8 173 0.0 3.2 0.00 0.00 0.00 70 1004.7
20260504045501 8 173 0.0 0.0 0.00 0.00 0.00 68 1004.5
20260504044957 8 135 0.0 1.6 0.00 0.00 0.00 66 1004.6
20260504044454 9 154 0.0 1.6 0.00 0.00 0.00 67 1004.7
20260504043952 9 209 0.0 1.6 0.00 0.00 0.00 67 1005.1
20260504043448 9 162 0.0 1.6 0.00 0.00 0.00 69 1005.0
20260504042946 9 160 0.0 1.6 0.00 0.00 0.00 68 1005.1
20260504042442 9 135 0.0 0.0 0.00 0.00 0.00 67 1005.2
20260504041939 9 81 0.0 3.2 0.00 0.00 0.00 67 1005.4
20260504041435 9 224 0.0 1.6 0.00 0.00 0.00 67 1005.3
20260504040931 9 135 0.0 0.0 0.00 0.00 0.00 67 1005.3
20260504040429 9 138 3.2 3.2 0.00 0.00 0.00 65 1005.8
20260504035925 10 116 0.0 1.6 0.00 0.00 0.00 65 1005.5
20260504035423 10 134 1.6 3.2 0.00 0.00 0.00 65 1005.5
20260504034919 10 144 3.2 4.8 0.00 0.00 0.00 65 1005.7
20260504034417 10 145 6.4 6.4 0.00 0.00 0.00 63 1005.8
20260504033914 10 159 3.2 3.2 0.00 0.00 0.00 60 1005.9
20260504033412 11 135 0.0 0.0 0.00 0.00 0.00 57 1006.1
20260504032908 11 135 0.0 0.0 0.00 0.00 0.00 57 1006.2
20260504032405 11 121 0.0 3.2 0.00 0.00 0.00 56 1006.2
20260504031902 11 140 1.6 3.2 0.00 0.00 0.00 56 1006.3
20260504031359 11 140 4.8 4.8 0.00 0.00 0.00 54 1006.2
20260504030855 12 150 3.2 3.2 0.00 0.00 0.00 51 1006.2
20260504030353 11 152 3.2 3.2 0.00 0.00 0.00 52 1006.3
20260504025848 11 124 0.0 0.0 0.00 0.00 0.00 51 1006.3
20260504025346 12 72 0.0 0.0 0.00 0.00 0.00 50 1006.5
20260504024842 12 129 0.0 1.6 0.00 0.00 0.00 48 1006.5
20260504024339 13 195 1.6 3.2 0.00 0.00 0.00 47 1006.4
20260504023836 12 179 0.0 3.2 0.00 0.00 0.00 48 1006.9
20260504023333 13 155 1.6 3.2 0.00 0.00 0.00 51 1006.3
20260504022828 13 142 0.0 0.0 0.00 0.00 0.00 45 1006.8
20260504022325 13 140 1.6 1.6 0.00 0.00 0.00 45 1006.8
20260504021821 13 171 1.6 3.2 0.00 0.00 0.00 47 1006.5
20260504021319 13 146 1.6 1.6 0.00 0.00 0.00 47 1006.5
20260504020816 14 171 0.0 1.6 0.00 0.00 0.00 45 1006.9
20260504020313 14 169 1.6 1.6 0.00 0.00 0.00 44 1006.7
20260504015809 15 147 1.6 3.2 0.00 0.00 0.00 43 1006.9
20260504015305 15 158 1.6 3.2 0.00 0.00 0.00 41 1007.0
20260504014801 16 136 3.2 3.2 0.00 0.00 0.00 37 1006.9
20260504014257 17 240 0.0 1.6 0.00 0.00 0.00 34 1007.0
20260504013755 18 275 1.6 3.2 0.00 0.00 0.00 33 1006.9
20260504013253 18 279 3.2 3.2 0.00 0.00 0.00 32 1007.2
20260504012749 18 267 3.2 4.8 0.00 0.00 0.00 32 1007.1
20260504012247 18 274 3.2 4.8 0.00 0.00 0.00 32 1007.3
20260504011744 19 269 3.2 4.8 0.00 0.00 0.00 31 1007.1
20260504011240 19 278 4.8 4.8 0.00 0.00 0.00 32 1007.1
20260504010737 19 279 4.8 4.8 0.00 0.00 0.00 32 1007.2
20260504010232 20 280 4.8 6.4 0.00 0.00 0.00 32 1007.5
20260504005729 20 276 4.8 6.4 0.00 0.00 0.00 32 1007.4
20260504005226 20 275 8.0 8.0 0.00 0.00 0.00 31 1007.4
20260504004724 20 275 6.4 9.7 0.00 0.00 0.00 30 1007.5
20260504004221 20 268 6.4 8.0 0.00 0.00 0.00 30 1007.4
20260504003717 21 274 8.0 8.0 0.00 0.00 0.00 29 1007.7
20260504003214 21 280 11.3 14.5 0.00 0.00 0.00 28 1007.7
20260504002711 21 268 6.4 8.0 0.00 0.00 0.00 30 1007.6
20260504002208 21 266 6.4 9.7 0.00 0.00 0.00 30 1007.8
20260504001706 21 262 8.0 16.1 0.00 0.00 0.00 28 1007.9
20260504001202 21 278 12.9 14.5 0.00 0.00 0.00 28 1007.7
20260504000659 21 280 11.3 17.7 0.00 0.00 0.00 29 1007.8
20260504000156 21 278 12.9 17.7 0.00 0.00 0.00 29 1007.8
20260503235654 21 258 8.0 14.5 0.00 0.00 0.00 32 1007.9
20260503235151 22 276 14.5 16.1 0.00 0.00 0.00 30 1007.9
20260503234649 22 259 11.3 14.5 0.00 0.00 0.00 29 1007.8
20260503234147 21 252 6.4 14.5 0.00 0.00 0.00 30 1008.0
20260503233643 21 271 9.7 14.5 0.00 0.00 0.00 32 1008.1
20260503233139 22 271 8.0 12.9 0.00 0.00 0.00 33 1008.2
20260503232636 22 278 14.5 16.1 0.00 0.00 0.00 31 1008.3
20260503232134 22 261 11.3 17.7 0.00 0.00 0.00 32 1008.3
20260503231632 22 268 9.7 14.5 0.00 0.00 0.00 32 1008.3
20260503231128 22 262 11.3 17.7 0.00 0.00 0.00 31 1008.3
20260503230625 22 279 8.0 12.9 0.00 0.00 0.00 32 1008.4
20260503230122 22 244 6.4 14.5 0.00 0.00 0.00 32 1008.4
20260503225620 22 269 11.3 20.9 0.00 0.00 0.00 32 1008.5
20260503225119 22 246 6.4 12.9 0.00 0.00 0.00 31 1008.4
20260503224617 23 279 9.7 11.3 0.00 0.00 0.00 30 1008.5
20260503224114 23 256 4.8 11.3 0.00 0.00 0.00 32 1008.6
20260503223612 23 257 6.4 9.7 0.00 0.00 0.00 31 1008.4
20260503223108 22 258 9.7 12.9 0.00 0.00 0.00 32 1008.5
20260503222606 22 269 11.3 14.5 0.00 0.00 0.00 32 1008.6
20260503222103 22 256 9.7 17.7 0.00 0.00 0.00 33 1008.7
20260503221601 22 306 8.0 16.1 0.00 0.00 0.00 32 1008.7
20260503221058 22 259 4.8 8.0 0.00 0.00 0.00 33 1008.7
20260503220555 22 255 9.7 11.3 0.00 0.00 0.00 33 1008.8
20260503220052 22 257 11.3 17.7 0.00 0.00 0.00 33 1008.7
20260503215549 22 273 9.7 11.3 0.00 0.00 0.00 34 1008.9
20260503215046 23 263 8.0 16.1 0.00 0.00 0.00 32 1008.7
20260503214544 23 257 6.4 12.9 0.00 0.00 0.00 33 1009.0
20260503214040 22 277 9.7 11.3 0.00 0.00 0.00 33 1009.0
20260503213539 22 271 8.0 14.5 0.00 0.00 0.00 35 1009.1
20260503213035 22 284 12.9 19.3 0.00 0.00 0.00 35 1009.1
20260503212532 22 289 4.8 14.5 0.00 0.00 0.00 33 1009.4
20260503212030 22 263 8.0 19.3 0.00 0.00 0.00 35 1009.5
20260503211527 22 255 9.7 19.3 0.00 0.00 0.00 33 1009.6
20260503211022 22 254 6.4 9.7 0.00 0.00 0.00 33 1009.7
20260503210519 22 260 8.0 17.7 0.00 0.00 0.00 35 1009.7
20260503210015 22 287 9.7 14.5 0.00 0.00 0.00 33 1009.9
20260503205512 22 281 14.5 19.3 0.00 0.00 0.00 35 1009.7
20260503205008 21 289 9.7 16.1 0.00 0.00 0.00 35 1009.9
20260503204505 22 277 14.5 16.1 0.00 0.00 0.00 34 1010.1
20260503204002 21 250 8.0 9.7 0.00 0.00 0.00 39 1010.1
20260503203459 21 258 3.2 11.3 0.00 0.00 0.00 38 1010.2
20260503202956 22 297 9.7 14.5 0.00 0.00 0.00 37 1010.3
20260503202454 22 286 11.3 14.5 0.00 0.00 0.00 35 1010.5
20260503201952 22 276 14.5 17.7 0.00 0.00 0.00 35 1010.6
20260503201450 22 277 9.7 16.1 0.00 0.00 0.00 37 1010.7
20260503200947 22 265 4.8 14.5 0.00 0.00 0.00 35 1010.7
20260503200443 22 248 9.7 16.1 0.00 0.00 0.00 34 1011.0
20260503195940 21 271 8.0 17.7 0.00 0.00 0.00 36 1010.9
20260503195437 21 280 11.3 19.3 0.00 0.00 0.00 36 1010.7
20260503194933 22 276 14.5 20.9 0.00 0.00 0.00 36 1010.9
20260503194430 22 17 4.8 4.8 0.00 0.00 0.00 37 1010.8
20260503193926 21 266 6.4 16.1 0.00 0.00 0.00 38 1011.0
20260503193421 21 271 8.0 19.3 0.00 0.00 0.00 37 1011.1
20260503192917 21 261 9.7 16.1 0.00 0.00 0.00 38 1011.2
20260503192414 21 285 14.5 16.1 0.00 0.00 0.00 40 1011.1
20260503191909 21 278 8.0 8.0 0.00 0.00 0.00 39 1011.1
20260503191408 21 249 8.0 8.0 0.00 0.00 0.00 41 1011.3
20260503190903 21 307 6.4 14.5 0.00 0.00 0.00 36 1011.6
20260503190401 20 287 9.7 16.1 0.00 0.00 0.00 39 1011.4
20260503185857 21 312 14.5 17.7 0.00 0.00 0.00 40 1011.5
20260503185354 20 278 9.7 12.9 0.00 0.00 0.00 40 1011.6
20260503184854 21 248 9.7 17.7 0.00 0.00 0.00 39 1011.9
20260503184350 21 304 11.3 17.7 0.00 0.00 0.00 40 1011.9
20260503183846 21 338 8.0 11.3 0.00 0.00 0.00 45 1011.6
20260503183343 20 298 4.8 11.3 0.00 0.00 0.00 40 1011.9
20260503182840 20 312 6.4 14.5 0.00 0.00 0.00 43 1012.1
20260503182340 20 317 11.3 14.5 0.00 0.00 0.00 39 1012.1
20260503181836 20 300 17.7 27.4 0.00 0.00 0.00 38 1012.4
20260503181333 20 264 8.0 12.9 0.00 0.00 0.00 40 1012.3
20260503180830 20 309 8.0 9.7 0.00 0.00 0.00 39 1012.5
20260503180328 20 325 4.8 14.5 0.00 0.00 0.00 42 1012.7
20260503175824 20 285 14.5 16.1 0.00 0.00 0.00 39 1012.7
20260503175322 20 276 8.0 12.9 0.00 0.00 0.00 39 1012.7
20260503174817 20 276 6.4 12.9 0.00 0.00 0.00 42 1012.9
20260503174316 20 321 9.7 19.3 0.00 0.00 0.00 41 1012.7